Location: Bakov nad Jizerou
(50.4784°N, 14.9394°E)
Time: 11:31:12
(UTC+00:00)

SL-8 R/B - Pass Details

Date: 27 October 2021
Orbit: 656 x 667 km, 48.4° (Epoch: 29 November)

Event Time Altitude Azimuth Distance (km) Brightness Sun altitude
Rises 17:37:39 0° 273° (W) 2,985 8.8 -18.5°
Reaches altitude 10° 17:40:00 10° 270° (W) 2,074 7.5 -18.9°
Maximum altitude 17:44:44 65° 189° (S) 727 3.8 -19.6°
Enters shadow 17:46:16 41° 125° (SE) 960 4.1 -19.9°
